Location: Blythe
(33.2930°N, 82.2020°W)
Time: 01:43:46
(UTC-04:00)

ISS - Visible Passes

Search period start: 28 September 2020 00:00
Search period end: 08 October 2020 00:00
Orbit: 419 x 421 km, 51.6° (Epoch: 29 September)

Date Brightness Start Highest point End Pass type
(mag) Time Alt. Az. Time Alt. Az. Time Alt. Az.
02 Oct -1.2 20:34:36 10° N 20:35:11 11° NNE 20:35:11 11° NNE visible
03 Oct -0.7 21:22:26 10° NW 21:22:50 13° NNW 21:22:50 13° NNW visible
04 Oct -2.2 20:35:23 10° NNW 20:37:35 24° NNE 20:37:35 24° NNE visible
05 Oct -1.9 19:48:31 10° N 19:50:50 17° NNE 19:52:25 13° ENE visible
05 Oct -0.7 21:24:36 10° WNW 21:25:25 16° WNW 21:25:25 16° WNW visible
06 Oct -3.8 20:37:09 10° NW 20:40:23 82° NW 20:40:23 82° NW visible
07 Oct -3.4 19:49:54 10° NW 19:53:11 47° NE 19:55:31 17° ESE visible
07 Oct -0.4 21:28:13 10° W 21:28:32 11° WSW 21:28:32 11° WSW visible
